485  
ASUS43 KMPX 291810  
RWRMN  
WEATHER ROUNDUP FOR MINNESOTA  
NATIONAL WEATHER SERVICE TWIN CITIES/CHANHASSEN MN  
1200 PM CST THU FEB 29 2024  
 
NOTE: "FAIR" INDICATES FEW OR NO CLOUDS BELOW 12,000 FEET WITH NO  
SIGNIFICANT WEATHER AND/OR S TO VISIBILITY
. N/A MEANS  
CURRENT SKY AND/OR WEATHER CONDITIONS ARE NOT AVAILABLE.  
 
MNZ060>063-068>070-291900-  
TWIN CITIES METRO  
 
CITY SKY/WX TMP DP RH WIND PRES REMARKS
 
TWIN CITIES MOSUNNY 34 12 40 SE16 30.11F WCI 24  
6HR MIN TEMP: 15; 6HR MAX TEMP: 34;  
 
ST PAUL SUNNY 35 13 40 SE10 30.13F WCI 27  
CRYSTAL SUNNY 34 11 38 SE14G21 30.10F WCI 25  
BLAINE SUNNY 34 10 37 S10G20 30.11F WCI 26  
LAKEVILLE SUNNY 39 19 45 SE10 30.09F  
EDEN PRAIRIE SUNNY 37 15 40 SE12 30.08F  
6HR MIN TEMP: 15; 6HR MAX TEMP: 37;  
 
SOUTH ST PAUL SUNNY 33 13 43 SE12 30.12F WCI 25  
LAKE ELMO SUNNY 32 12 43 S12 30.13F WCI 23  

 
MNZ001>005-007-008-013>017-022>024-027-028-291900-  
NORTHWEST MINNESOTA  
 
CITY SKY/WX TMP DP RH WIND PRES REMARKS
 
BEMIDJI PTSUNNY 19 5 56 SE16 29.99F WCI 4  
HALLOCK PTSUNNY 21 10 63 SE16 29.94F WCI 7  
ROSEAU PTSUNNY 16 3 57 E13G18 30.00F WCI 2  
WARROAD PTSUNNY 10 1 67 E18 30.03F WCI -8  
THIEF RVR FALL PTSUNNY 20 8 60 E17 29.96F WCI 5  
CROOKSTON SUNNY 25 10 54 SE15 29.95F WCI 12  
FOSSTON MOSUNNY 27 9 46 SE8 29.94F WCI 18  
DETROIT LAKES SUNNY 28 12 50 SE13G26 29.93F WCI 18  
MOORHEAD SUNNY 30 16 55 SE20 29.93F WCI 18  
PARK RAPIDS MOSUNNY 29 7 39 SE16 29.97F WCI 17  
MAHNOMEN MOSUNNY 29 10 46 SE10G17 29.93F WCI 19  

 
MNZ006-009>011-018-025>026-291900-  
NORTH CENTRAL MINNESOTA  
 
CITY SKY/WX TMP DP RH WIND PRES REMARKS
 
BAUDETTE PTSUNNY 16 0 49 E14 30.04F WCI 2  
FLAG ISLAND PTSUNNY 7 -4 61 E10 30.09F WCI -8  
INTL FALLS CLOUDY 9 -3 58 E9 30.11F WCI -4  
6HR MIN TEMP: -16; 6HR MAX TEMP: 10;  
 
WASKISH PTSUNNY 19 7 58 SE14 30.03F WCI 6  
BIG FORK CLOUDY 18 3 53 SE13 30.11F WCI 4  
LONGVILLE PTSUNNY 27 5 39 SE12 30.02F WCI 16  
GRAND RAPIDS CLOUDY 18 1 47 SE9 30.09F WCI 7  
ORR PTSUNNY 18 0 45 SE8 30.09F WCI 7  
COOK CLOUDY 18 0 45 E8 30.12F WCI 7  
WALKER PTSUNNY 25 6 45 SE8 30.00F WCI 16  

 
MNZ012-019>021-037-291900-  
NORTHEAST MINNESOTA  
 
CITY SKY/WX TMP DP RH WIND PRES REMARKS
 
DULUTH CLOUDY 16 1 51 E16 30.13F WCI 1  
6HR MIN TEMP: 4; 6HR MAX TEMP: 16;  
 
ELY CLOUDY 16 0 48 S9 30.15F WCI 4  
HIBBING CLOUDY 16 -1 47 SE14 30.11F WCI 2  
EVELETH CLOUDY 18 5 57 E8 30.13F WCI 7  
DULUTH HARBOR CLOUDY 18 5 57 E14G20 30.21F WCI 4  
TWO HARBORS CLOUDY 16 5 62 E10 30.19F WCI 3  
GRAND MARAIS N/A 14 5 67 E7 30.30F WCI 4  
G MARAIS ARPRT CLOUDY 9 -4 56 SE6 30.16F WCI -1  

 
MNZ029>031-032-039>041-046>048-054>057-064-291900-  
WEST CENTRAL MINNESOTA  
 
CITY SKY/WX TMP DP RH WIND PRES REMARKS
 
FERGUS FALLS SUNNY 34 12 40 SE17G24 29.94F WCI 23  
WHEATON SUNNY 36 18 48 SE14 29.94F  
MORRIS SUNNY 36 19 51 SE21 29.93F  
ALEXANDRIA SUNNY 33 12 41 SE16 29.96F WCI 23  
ELBOW LAKE SUNNY 35 11 38 SE15G24 29.94F WCI 25  
WADENA SUNNY 30 9 40 SE14 29.97F WCI 20  
GLENWOOD SUNNY 34 16 47 E15 29.97F WCI 24  
APPLETON SUNNY 39 18 41 SE15G21 29.95F  
BENSON SUNNY 36 18 48 SE15G21 29.98F  
ORTONVILLE N/A 36 19 51 SE16 29.94S  
MADISON SUNNY 43 25 49 SE13 29.95F  
WILLMAR SUNNY 36 21 55 SE17G23 29.99F  

 
MNZ033>034-036-042>043-049>051-058-059-291900-  
CENTRAL MINNESOTA  
 
CITY SKY/WX TMP DP RH WIND PRES REMARKS
 
ST CLOUD SUNNY 32 11 41 SE15G23 30.05F WCI 22  
6HR MIN TEMP: 11; 6HR MAX TEMP: 33;  
 
SAUK CENTRE SUNNY 32 13 46 E15 29.99F WCI 21  
PAYNESVILLE SUNNY 32 14 47 SE14 30.02F WCI 22  
AITKIN MOSUNNY 30 7 37 SE13 30.05F WCI 20  
PINE RIVER MOSUNNY 27 9 46 E12G17 30.05F WCI 16  
BRAINERD SUNNY 30 7 37 SE13G30 30.03F WCI 20  
STAPLES SUNNY 30 7 37 SE12 29.99F WCI 21  
LONG PRAIRIE SUNNY 30 12 47 SE12 30.00F WCI 21  
LITTLE FALLS SUNNY 30 10 43 SE12G17 30.04F WCI 21  
CAMP RIPLEY SUNNY 31 8 38 SE13 30.02F WCI 21  
LITCHFIELD SUNNY 36 14 41 SE14G20 30.02F  
BUFFALO SUNNY 32 14 47 SE13 30.06F WCI 22  
MAPLE LAKE SUNNY 34 12 40 SE8 30.07F WCI 27  
HUTCHINSON SUNNY 40 16 37 SE16 30.04F  

 
MNZ037-044-045-052-053-291900-  
EAST CENTRAL MINNESOTA  
 
CITY SKY/WX TMP DP RH WIND PRES REMARKS
 
PRINCETON SUNNY 34 9 35 SE13 30.09F WCI 25  
MORA SUNNY 30 7 37 SE9 30.13F WCI 22  
CAMBRIDGE SUNNY 30 18 59 SE10 30.11F WCI 21  
RUSH CITY SUNNY 31 8 37 SE12G17 30.11F WCI 22  
MOOSE LAKE PTSUNNY 28 5 37 SE6 30.11F WCI 22  
HINCKLEY MOSUNNY 32 7 34 SE6 30.12F WCI 26  
CLOQUET CLOUDY 16 -2 45 E12G17 30.11F WCI 3  
MCGREGOR CLOUDY 28 7 40 SE10 30.08F WCI 19  

 
MNZ071>073-080-081-089-090-097-098-291900-  
SOUTHWEST MINNESOTA  
 
CITY SKY/WX TMP DP RH WIND PRES REMARKS
 
MONTEVIDEO SUNNY 39 21 48 SE13 29.96F  
GRANITE FALLS SUNNY 46 22 38 SE12 29.97F  
CANBY SUNNY 47 21 35 CALM 29.93F  
MARSHALL SUNNY 47 21 35 S17 29.95F  
REDWOOD FALLS SUNNY 45 21 38 S12 29.98F  
OLIVIA SUNNY 39 21 48 SE12 29.98F  
WINDOM SUNNY 50 19 29 S17G26 29.96F  
WORTHINGTON SUNNY 49 19 30 S29G35 29.96F  
JACKSON SUNNY 50 18 27 S20G30 29.99F  
TRACY SUNNY 48 21 34 SW18G26 29.95F  
SLAYTON SUNNY 44 21 40 S18G24 29.95F  

 
MNZ065>067-074>077-082>085-091>093-291900-  
SOUTH CENTRAL MINNESOTA  
 
CITY SKY/WX TMP DP RH WIND PRES REMARKS
 
MANKATO SUNNY 45 19 35 S17 30.05F  
NEW ULM SUNNY 46 18 31 S13 30.01F  
ST JAMES SUNNY 52 19 28 S17G24 30.01F  
FAIRMONT SUNNY 51 20 29 S23G30 30.03F  
GLENCOE SUNNY 40 15 36 SE13 30.05F  
OWATONNA SUNNY 45 25 45 S17 30.08F  
WASECA SUNNY 46 21 36 S22G28 30.09F  
ALBERT LEA SUNNY 48 21 34 S17G23 30.08F  

 
MNZ078>079-086>088-094>096-291900-  
SOUTHEAST MINNESOTA  
 
CITY SKY/WX TMP DP RH WIND PRES REMARKS
 
ROCHESTER SUNNY 43 24 47 S22G29 30.11F  
6HR MIN TEMP: 11; 6HR MAX TEMP: 43;  
 
STANTON SUNNY 41 21 45 S13 30.11F  
DODGE CENTER SUNNY 45 21 39 S22G28 30.10F  
WINONA SUNNY 39 18 41 SE8 30.19F  
AUSTIN SUNNY 48 19 32 S20G26 30.11F  
PRESTON SUNNY 45 19 36 S18G35 30.14F  

 
ABBREVIATIONS USED IN REMARKS  
TC - TEMPERATURES IN CELSIUS  
WCI - WIND CHILL INDEX  
HX - HEAT INDEX  
VSB - VISIBILITY  

 
 
 
CLICK HERE TO GO TO PREVIOUS BULLETINS.

The Nexlab MN Page Main Text Page